INTELSAT 10-02

Last updated on Thu Oct 30 2025 00:02:47 GMT+0000 (Coordinated Universal Time)

1 28358U 04022A 25302.32816361 .00000000 00000+0 00000+0 0 9994 2 28358 0.0093 121.9503 0000771 119.9294 273.2340 1.00274043 78244
UTC large
Height (km)
Speed (km/s)
/
Latitude / Longitude
Inclination (degrees)
Orbital Period (minutes)
Azimuth
Elevation
Range (km)
Doppler Factor

Next 0 passes for location: London (51.5072 / 0.1276)

Sorry there are no passes over London.